Wind_Speed
25 22 20 20 16 15 17 17 17 16 17 16 17 17 16 14 15 19 22 27 32 36 40 46 54 47 48 50 52 53 39 41 33 35 39 32 30 29 28 32 41 48 45 44
25 22 21 19 17 16 17 16 16 16 16 17 17 18 14 14 14 18 22 26 32 36 40 46 54 46 48 50 52 50 37 37 30 39 42 33 35 37 29 27 35 43 42 39
26 22 21 20 17 16 16 15 16 16 15 17 17 15 15 14 14 17 21 26 31 36 40 46 51 45 46 50 51 48 37 33 31 41 38 36 28 15 28 24 31 35 40 38
27 21 21 19 15 14 14 16 16 16 15 17 19 11 18 15 13 16 20 25 31 35 39 45 48 44 46 51 52 45 37 30 34 41 36 32 15 8 23 22 20 26 33 34
26 24 21 18 15 12 14 16 17 16 16 16 19 17 15 15 14 15 18 23 30 34 37 44 45 43 46 51 51 44 38 27 33 39 34 23 11 6 24 20 14 13 25 28
28 27 21 19 14 13 14 16 18 16 17 17 19 19 16 16 15 15 16 22 28 32 35 42 44 42 46 51 51 42 38 25 32 34 28 25 15 17 26 20 17 12 13 18
31 29 24 21 19 18 18 18 21 20 18 19 21 19 19 17 16 15 15 19 25 31 32 39 43 41 44 49 51 41 38 26 27 29 25 23 23 20 20 19 13 10 6 13
35 32 28 25 22 21 19 20 23 24 22 18 21 20 18 18 17 16 14 16 23 28 30 34 41 39 42 48 52 46 36 28 25 25 27 23 20 19 19 15 16 12 8 19
37 34 32 29 27 23 21 22 23 24 26 22 18 18 18 17 18 15 13 13 20 24 27 31 37 36 39 45 49 49 35 28 23 20 22 23 25 24 21 18 16 7 16 19
35 35 34 32 30 26 26 26 26 27 31 26 18 16 16 18 19 17 14 11 16 22 24 27 33 35 36 41 45 47 39 27 23 18 19 22 21 22 18 15 20 15 20 19
34 40 36 33 31 31 30 30 30 32 33 31 21 16 18 19 18 20 16 12 10 17 21 24 27 33 35 38 41 43 42 31 26 18 16 17 16 16 18 12 17 21 23 18
27 30 33 34 36 36 36 32 33 34 36 32 29 14 18 20 20 20 18 13 7 12 17 21 24 29 32 33 38 38 38 37 30 26 20 10 12 9 11 17 15 18 13 14
31 32 34 35 35 35 34 34 37 39 39 33 31 19 19 21 22 19 19 14 10 7 13 19 20 23 27 29 33 36 36 34 34 30 28 25 20 14 7 9 10 9 8 5
35 36 37 35 36 35 37 37 38 40 39 35 27 24 21 24 27 22 19 17 14 7 9 13 16 18 22 25 27 31 33 32 32 32 31 32 32 30 28 27 18 11 9 7
39 38 37 38 36 34 33 36 40 41 31 38 23 25 19 24 27 28 21 19 18 13 8 10 11 13 16 19 22 26 28 28 27 27 26 27 28 27 27 28 27 27 27 27
44 42 37 36 34 34 35 34 32 32 30 32 27 20 24 31 32 28 29 20 19 16 12 9 9 8 11 15 17 20 23 24 22 21 21 24 23 24 24 23 24 23 23 23
48 49 47 44 38 40 44 28 26 28 27 28 32 19 26 30 33 33 29 23 20 20 17 12 10 7 6 10 13 14 17 19 20 18 17 18 19 18 19 18 16 15 15 15
49 49 50 51 47 46 44 39 35 33 29 30 30 25 28 31 34 37 28 24 26 22 21 17 14 11 6 5 8 10 12 15 16 15 14 14 13 13 13 12 10 9 8 8
52 51 50 52 52 49 44 43 42 33 26 32 34 27 31 36 34 31 31 30 30 26 22 23 19 16 12 8 5 8 5 9 12 12 12 9 10 10 8 6 5 4 2 1
51 50 50 52 52 52 50 48 51 47 38 31 38 33 30 33 31 21 36 36 31 27 23 27 24 22 18 14 11 7 5 2 4 7 8 8 6 3 2 4 4 5 5 7
58 59 57 54 54 52 49 48 48 48 44 43 36 34 38 33 36 29 36 37 33 29 26 27 27 26 24 20 17 12 9 7 3 1 2 4 3 3 3 5 8 10 11 12
59 59 59 58 59 60 51 48 49 48 47 43 39 38 36 38 36 35 34 38 36 32 31 28 29 31 29 25 23 19 16 12 10 7 5 4 4 4 5 8 10 12 14 17
64 59 57 53 54 56 58 54 48 47 47 43 43 41 40 35 37 40 35 39 39 35 33 32 32 33 33 29 27 26 25 19 16 12 11 10 8 6 7 9 11 13 15 17
63 61 61 59 54 54 55 57 52 51 47 43 44 42 39 36 36 36 39 40 41 40 37 37 35 34 35 33 32 33 29 26 24 19 15 13 12 11 10 12 13 15 17 19
56 59 64 64 58 58 55 54 57 59 53 45 41 40 41 40 39 37 39 44 44 45 43 40 38 38 38 39 38 36 33 31 29 27 22 17 16 15 14 15 17 18 19 20
55 55 57 56 52 60 57 55 60 60 59 55 49 45 43 44 41 41 41 44 47 48 48 44 42 42 41 43 42 40 38 36 35 32 30 28 25 21 20 19 20 22 22 22
Wind_Direction
274 282 288 287 290 286 289 291 294 301 298 306 310 306 310 315 330 340 347 345 346 346 343 346 344 341 337 336 336 334 335 333 341 335 317 299 286 277 249 239 229 225 226 224
273 276 279 281 280 284 286 288 290 296 298 307 308 305 303 314 330 341 343 347 347 343 346 347 348 342 341 337 340 338 340 335 345 327 319 305 289 277 250 239 224 219 224 221
267 267 270 272 276 281 284 283 290 289 295 305 303 303 299 311 332 344 345 352 348 345 348 350 351 346 343 342 345 344 343 345 349 337 325 318 308 270 216 219 216 211 220 223
259 260 265 267 273 278 282 286 287 286 290 301 297 298 292 305 329 341 346 353 349 347 349 351 354 351 347 346 350 351 351 355 4 352 338 335 332 212 186 191 205 205 215 215
251 252 257 264 266 279 278 283 284 286 290 300 296 293 285 299 319 336 345 350 348 346 350 351 359 356 352 351 356 356 355 4 13 3 2 13 26 84 155 163 162 179 196 201
249 248 252 254 269 275 283 284 284 285 287 295 295 292 292 295 309 330 344 350 350 345 351 354 5 2 359 356 360 1 357 10 20 12 37 54 75 94 137 150 160 161 157 184
246 244 246 252 263 273 281 284 284 285 286 293 292 286 290 293 303 319 341 352 353 346 352 356 7 7 2 0 3 10 2 8 28 18 36 47 70 80 131 152 140 157 176 173
244 242 243 248 259 271 282 283 284 289 291 289 289 287 287 293 301 314 332 355 355 346 354 358 9 11 7 6 5 16 10 13 34 26 36 50 63 71 111 134 130 137 150 159
243 240 241 246 257 267 276 279 282 286 289 292 288 281 281 286 297 310 323 353 359 345 355 0 12 14 12 11 7 15 21 11 36 41 41 55 70 88 101 110 123 117 143 161
240 240 241 248 257 263 270 276 281 283 285 287 288 285 274 285 291 303 309 336 359 345 352 1 14 19 15 17 11 13 26 22 32 53 41 46 69 79 92 95 96 153 140 143
250 247 243 248 255 262 268 277 280 280 280 282 281 277 277 277 285 293 299 310 357 345 353 357 14 20 21 22 16 14 26 30 32 45 41 40 56 85 73 106 116 127 140 152
255 252 252 250 255 258 264 269 275 277 276 276 280 276 278 271 278 283 291 291 326 342 352 350 9 20 24 24 23 20 24 34 38 46 46 60 53 66 82 92 109 100 123 147
258 260 256 254 256 258 260 262 267 272 275 279 277 283 282 269 271 273 277 281 285 328 344 346 360 17 25 26 26 24 26 31 40 44 53 51 66 77 37 74 95 113 128 131
253 259 263 266 258 257 260 260 262 266 273 281 281 271 270 273 274 267 270 276 275 288 323 338 348 10 24 30 27 25 24 29 35 39 42 53 55 57 64 61 59 58 63 53
249 252 259 263 262 262 264 267 266 268 274 278 282 272 271 269 264 267 267 266 273 271 285 317 335 357 14 32 30 28 27 29 36 36 41 49 58 66 68 69 69 73 67 67
243 247 249 253 252 259 266 274 276 275 278 282 273 268 272 254 258 258 265 264 266 266 267 285 308 337 359 18 33 30 32 32 36 41 38 40 47 60 71 69 65 63 63 64
242 243 244 245 255 265 267 271 275 273 278 278 273 275 264 270 266 260 261 266 262 263 259 261 276 289 339 357 14 33 35 35 38 38 45 47 46 48 54 73 85 82 74 72
240 243 245 247 252 255 261 268 265 273 280 270 272 269 262 268 266 260 260 257 263 261 257 254 258 265 268 319 344 16 39 42 36 38 41 50 52 51 46 49 67 92 97 97
243 246 250 251 250 250 255 265 270 267 269 272 264 261 262 264 265 263 258 253 252 259 255 254 253 254 251 258 283 323 16 49 42 33 37 40 53 51 38 40 26 24 22 57
243 249 250 253 254 255 255 257 263 269 270 273 274 269 263 266 271 249 246 249 250 257 254 251 250 252 250 250 253 267 296 2 53 36 28 27 29 27 356 346 336 314 298 298
252 254 252 251 255 255 259 263 264 267 272 270 272 272 273 272 269 266 257 251 253 255 247 248 250 249 252 251 251 244 247 259 274 101 357 358 8 341 301 281 277 281 282 278
247 246 246 246 250 256 260 259 261 264 269 272 272 268 263 266 268 265 255 249 250 246 245 247 248 248 249 251 251 246 240 243 257 269 261 274 303 289 281 273 271 278 281 283
242 244 245 246 249 249 253 253 259 264 265 268 267 266 261 260 262 259 258 252 246 246 246 246 247 248 248 248 250 249 247 245 245 251 256 265 275 272 270 273 275 280 280 285
241 244 244 245 244 245 249 253 257 259 263 269 270 268 264 259 259 260 256 251 247 245 246 248 247 249 248 246 248 249 251 248 250 248 249 253 265 277 275 268 267 270 278 282
241 244 246 247 244 247 253 257 257 257 259 263 268 269 269 264 255 255 254 251 248 247 245 245 246 247 247 245 245 248 249 251 252 253 248 250 261 271 276 272 270 269 270 275
244 248 250 253 251 253 252 255 256 257 261 261 260 265 266 262 260 259 258 250 251 247 246 244 245 248 248 247 245 247 248 250 254 253 255 256 259 266 273 279 274 273 274 273
Height
5790 5790 5789 5787 5787 5786 5786 5785 5783 5784 5782 5782 5781 5779 5777 5776 5773 5769 5766 5762 5758 5753 5746 5738 5727 5714 5701 5688 5676 5664 5654 5644 5635 5628 5623 5616 5610 5607 5607 5610 5614 5623 5631 5642
5785 5785 5784 5783 5783 5782 5782 5780 5779 5779 5778 5778 5777 5775 5774 5773 5770 5766 5762 5758 5754 5749 5742 5733 5723 5709 5696 5684 5672 5657 5648 5638 5628 5621 5612 5601 5594 5590 5594 5599 5604 5614 5624 5634
5779 5780 5779 5779 5778 5777 5776 5775 5775 5775 5774 5773 5772 5772 5770 5769 5766 5762 5759 5754 5750 5745 5738 5729 5719 5705 5693 5679 5666 5654 5644 5633 5622 5614 5600 5588 5576 5573 5580 5591 5598 5607 5618 5629
5773 5775 5774 5774 5773 5772 5772 5771 5771 5770 5770 5769 5767 5769 5765 5765 5762 5758 5755 5750 5746 5742 5735 5726 5716 5703 5690 5677 5663 5649 5640 5630 5619 5610 5594 5580 5569 5567 5576 5588 5597 5604 5615 5625
5768 5767 5768 5769 5768 5767 5768 5767 5766 5766 5765 5765 5763 5763 5761 5760 5758 5755 5751 5747 5742 5739 5733 5723 5713 5700 5688 5674 5661 5647 5638 5627 5617 5608 5595 5581 5574 5574 5580 5591 5600 5605 5614 5624
5760 5760 5763 5763 5763 5763 5763 5763 5762 5761 5761 5761 5759 5758 5758 5756 5755 5751 5747 5743 5739 5735 5729 5721 5711 5699 5686 5674 5661 5648 5637 5628 5619 5611 5600 5590 5586 5583 5588 5596 5603 5610 5617 5624
5751 5754 5756 5757 5757 5757 5758 5758 5756 5756 5756 5756 5754 5753 5752 5751 5750 5748 5744 5739 5735 5732 5726 5719 5710 5699 5686 5674 5662 5649 5638 5631 5621 5617 5606 5600 5597 5595 5596 5602 5608 5614 5620 5626
5743 5747 5749 5751 5751 5752 5752 5752 5751 5749 5750 5752 5750 5749 5748 5747 5746 5744 5741 5736 5732 5729 5724 5717 5708 5699 5687 5675 5663 5651 5641 5633 5625 5622 5613 5607 5604 5603 5603 5609 5614 5618 5622 5627
5735 5740 5742 5743 5744 5746 5747 5746 5746 5744 5743 5745 5746 5745 5743 5743 5742 5741 5738 5733 5728 5726 5722 5716 5707 5699 5688 5677 5666 5655 5645 5636 5629 5624 5622 5614 5610 5610 5613 5614 5616 5619 5624 5627
5728 5732 5734 5736 5737 5740 5740 5741 5741 5739 5735 5738 5740 5740 5738 5738 5737 5736 5735 5730 5725 5722 5720 5714 5706 5699 5690 5680 5670 5658 5649 5641 5634 5628 5626 5624 5619 5617 5617 5620 5624 5626 5630 5633
5719 5722 5728 5729 5730 5731 5733 5734 5733 5731 5730 5730 5733 5737 5733 5732 5733 5732 5731 5727 5722 5719 5717 5713 5706 5699 5691 5682 5674 5663 5653 5647 5641 5634 5629 5627 5627 5626 5625 5626 5628 5628 5633 5635
5711 5712 5715 5719 5721 5723 5725 5726 5725 5722 5723 5723 5724 5732 5728 5727 5727 5727 5726 5724 5719 5716 5713 5711 5705 5698 5692 5684 5678 5669 5659 5652 5646 5641 5636 5631 5630 5631 5631 5631 5634 5636 5638 5639
5703 5704 5705 5708 5713 5714 5715 5717 5715 5713 5712 5718 5718 5725 5722 5720 5720 5721 5720 5720 5716 5712 5710 5708 5704 5698 5692 5685 5679 5673 5666 5659 5653 5649 5642 5639 5634 5632 5634 5636 5637 5638 5640 5642
5692 5695 5697 5699 5701 5704 5705 5706 5706 5704 5705 5709 5714 5715 5716 5713 5713 5714 5714 5714 5712 5710 5707 5705 5702 5697 5692 5686 5680 5674 5668 5661 5657 5652 5647 5642 5639 5638 5637 5637 5639 5641 5641 5641
5681 5685 5687 5689 5690 5692 5695 5697 5696 5697 5703 5698 5709 5707 5709 5705 5703 5705 5707 5708 5707 5706 5703 5701 5699 5696 5691 5686 5681 5676 5670 5665 5660 5657 5655 5650 5647 5645 5645 5645 5645 5645 5646 5646
5671 5674 5677 5679 5681 5682 5685 5687 5692 5693 5695 5692 5695 5699 5698 5698 5693 5698 5698 5701 5701 5701 5700 5697 5696 5693 5690 5686 5681 5676 5672 5668 5665 5661 5659 5655 5652 5648 5646 5646 5647 5648 5649 5649
5659 5662 5667 5670 5673 5673 5674 5684 5684 5685 5688 5687 5684 5693 5688 5690 5688 5690 5693 5695 5695 5694 5694 5693 5692 5690 5687 5684 5681 5676 5673 5669 5666 5665 5662 5659 5656 5654 5650 5647 5648 5651 5652 5653
5646 5650 5653 5658 5664 5664 5667 5670 5676 5678 5681 5679 5678 5682 5680 5680 5679 5680 5687 5689 5688 5688 5688 5689 5687 5686 5683 5682 5679 5676 5672 5669 5666 5664 5663 5661 5658 5656 5655 5654 5652 5650 5651 5652
5632 5637 5642 5645 5650 5657 5661 5661 5662 5668 5675 5667 5668 5672 5670 5669 5670 5678 5678 5679 5680 5681 5682 5682 5682 5681 5680 5678 5676 5674 5670 5667 5665 5663 5661 5660 5659 5657 5656 5655 5655 5654 5653 5651
5620 5624 5629 5633 5637 5643 5649 5653 5652 5656 5660 5662 5662 5662 5664 5661 5664 5670 5662 5667 5671 5672 5674 5674 5675 5676 5675 5673 5672 5670 5668 5664 5662 5660 5659 5658 5657 5657 5655 5655 5654 5653 5652 5652
5606 5610 5616 5620 5623 5631 5640 5642 5644 5646 5649 5647 5651 5653 5655 5656 5655 5658 5657 5658 5663 5664 5665 5666 5668 5668 5668 5668 5667 5665 5664 5661 5659 5656 5655 5654 5653 5653 5653 5652 5651 5650 5650 5649
5592 5597 5602 5607 5611 5619 5629 5630 5632 5632 5633 5636 5640 5643 5644 5645 5646 5647 5649 5649 5651 5654 5656 5657 5659 5659 5660 5661 5661 5660 5659 5656 5655 5653 5651 5650 5649 5648 5648 5648 5647 5646 5645 5644
5575 5585 5591 5595 5606 5610 5608 5614 5618 5618 5621 5625 5627 5629 5632 5633 5635 5636 5639 5640 5641 5644 5647 5648 5649 5650 5651 5653 5654 5653 5652 5651 5650 5648 5646 5645 5644 5643 5642 5641 5641 5640 5639 5638
5561 5567 5573 5579 5595 5598 5600 5600 5604 5604 5609 5613 5615 5617 5620 5623 5624 5624 5627 5630 5631 5632 5635 5637 5639 5641 5642 5644 5644 5644 5644 5644 5643 5642 5640 5639 5638 5638 5636 5635 5633 5632 5632 5631
5546 5550 5561 5567 5579 5583 5588 5591 5589 5590 5596 5602 5605 5606 5607 5609 5611 5612 5613 5616 5618 5621 5624 5626 5629 5630 5631 5632 5633 5634 5635 5635 5635 5635 5634 5633 5631 5630 5629 5628 5627 5625 5623 5623
5535 5542 5546 5559 5568 5563 5573 5573 5575 5578 5581 5587 5590 5592 5595 5596 5599 5600 5602 5602 5605 5608 5612 5614 5617 5620 5620 5621 5622 5623 5625 5625 5625 5625 5626 5625 5623 5622 5621 5620 5619 5618 5616 5614